Weather History for Russell, KS

Change the Weather History Date:

Saturday, February 9, 2013

  Actual Average Record
Temperature  
Mean Temperature 42 °F -  
Max Temperature 50 °F 41 °F 81 °F (1976)
Min Temperature 33 °F 15 °F -8 °F (1980)
Degree Days  
Heating Degree Days 24    
Moisture  
Dew Point 35 °F    
Average Humidity 81    
Maximum Humidity 100    
Minimum Humidity 66    
Precipitation  
Precipitation 0.00 in - - ()
Sea Level Pressure  
Sea Level Pressure 29.77 in    
Wind  
Wind Speed 22 mph (SSE)    
Max Wind Speed 31 mph    
Max Gust Speed 43 mph    
Visibility 7 miles    
Events Rain    
Averages and records for this station are not official NWS values.
T = Trace of Precipitation, MM = Missing Value Source: NWS Daily Summary

Daily Weather History Graph

Daily Weather History Graph

Search for Another Location

Airport:

Trip Planner

Search our weather history database for the weather conditions in past years. The results will help you decide how hot, cold, wet, or windy it might be!

Date:

Astronomy

Feb. 09, 2013 Rise Set
Actual Time 7:33 AM CST 6:06 PM CST
Civil Twilight 7:05 AM CST 6:33 PM CST
Nautical Twilight 6:34 AM CST 7:05 PM CST
Astronomical Twilight 6:03 AM CST 7:36 PM CST
Moon 6:45 AM CST (2/9) 5:50 PM CST (2/9)
Length of Visible Light 11h 28m
Length of Day
10h 33m
Waning Crescent, 0% of the Moon is Illuminated
Feb 9
Waning Crescent
Feb 10
New
Feb 17
First Quarter
Feb 25
Full
Mar 4
Last Quarter

Hourly Weather History & Observations

Time (CST) Temp. Windchill Dew Point Humidity Pressure Visibility Wind Dir Wind Speed Gust Speed Precip Events Conditions
12:53 AM 36.0 °F 25.3 °F 28.9 °F 76% 30.03 in 7.0 mi South 19.6 mph - N/A   Clear
1:53 AM 35.1 °F 23.5 °F 28.9 °F 78% 30.01 in 7.0 mi SSE 21.9 mph - N/A   Clear
2:53 AM 34.0 °F 22.1 °F 28.9 °F 82% 29.99 in 7.0 mi SSE 21.9 mph - N/A   Clear
3:53 AM 33.1 °F 20.9 °F 28.9 °F 85% 29.96 in 7.0 mi SSE 21.9 mph 26.5 mph N/A   Clear
4:53 AM 33.1 °F 21.9 °F 28.9 °F 85% 29.96 in 6.0 mi South 18.4 mph - N/A   Clear
5:53 AM 33.1 °F 21.5 °F 28.9 °F 85% 29.95 in 6.0 mi South 19.6 mph - N/A   Clear
6:53 AM 34.0 °F 25.0 °F 28.9 °F 82% 29.96 in 7.0 mi South 12.7 mph - N/A   Clear
7:53 AM 33.1 °F 23.4 °F 28.9 °F 85% 29.95 in 5.0 mi SSE 13.8 mph - N/A   Clear
8:53 AM 39.0 °F 29.6 °F 32.0 °F 76% 29.93 in 7.0 mi South 18.4 mph - N/A   Clear
9:53 AM 43.0 °F 33.1 °F 33.1 °F 68% 29.90 in 10.0 mi South 26.5 mph 34.5 mph N/A   Clear
10:53 AM 46.9 °F - 36.0 °F 66% 29.88 in 10.0 mi South 25.3 mph 34.5 mph N/A   Clear
11:53 AM 48.0 °F - 37.9 °F 68% 29.84 in 10.0 mi South 29.9 mph 40.3 mph N/A   Overcast
12:53 PM 48.0 °F - 37.9 °F 68% 29.80 in 10.0 mi SSE 29.9 mph 35.7 mph N/A   Mostly Cloudy
1:53 PM 50.0 °F - 39.0 °F 66% 29.74 in 10.0 mi SSE 28.8 mph 40.3 mph N/A   Mostly Cloudy
2:53 PM 50.0 °F - 39.0 °F 66% 29.71 in 10.0 mi South 29.9 mph 40.3 mph N/A   Mostly Cloudy
3:03 PM 48.2 °F - 39.2 °F 71% 29.68 in 10.0 mi South 31.1 mph 42.6 mph N/A   Overcast
3:53 PM 46.0 °F 37.4 °F 39.0 °F 76% 29.69 in 9.0 mi SSE 25.3 mph 36.8 mph N/A   Overcast
4:53 PM 44.1 °F 34.0 °F 39.0 °F 82% 29.66 in 8.0 mi SSE 29.9 mph 36.8 mph N/A   Overcast
5:53 PM 43.0 °F 34.0 °F 37.9 °F 82% 29.65 in 8.0 mi SSE 21.9 mph 38.0 mph N/A   Overcast
6:53 PM 41.0 °F 29.8 °F 37.0 °F 86% 29.62 in 8.0 mi SSE 29.9 mph 35.7 mph N/A   Overcast
7:06 PM 41.0 °F 30.2 °F 37.4 °F 87% 29.59 in 8.0 mi SSE 27.6 mph 39.1 mph N/A   Overcast
7:53 PM 41.0 °F 30.0 °F 37.0 °F 86% 29.62 in 8.0 mi SSE 28.8 mph 34.5 mph N/A   Overcast
8:53 PM 39.9 °F 29.5 °F 37.9 °F 93% 29.60 in 5.0 mi SSE 24.2 mph 29.9 mph N/A   Overcast
9:29 PM 39.2 °F 28.7 °F 37.4 °F 93% 29.58 in 2.5 mi South 23.0 mph 28.8 mph 0.00 in   Overcast
9:53 PM 39.9 °F 30.8 °F 37.9 °F 93% 29.59 in 2.5 mi SSE 18.4 mph 25.3 mph 0.00 in Rain Light Rain
10:08 PM 39.2 °F 29.6 °F 39.2 °F 100% 29.55 in 3.0 mi SSE 19.6 mph - 0.00 in Rain Light Rain
10:53 PM 41.0 °F 32.5 °F 39.0 °F 93% 29.54 in 7.0 mi SSE 17.3 mph 24.2 mph 0.00 in   Overcast
11:53 PM 42.1 °F 31.7 °F 39.0 °F 89% 29.47 in 10.0 mi SSE 27.6 mph 39.1 mph N/A   Overcast